Theta_e
307 307 307 307 306 310 311 313 314 312 311 312 311 312 312 312 314 312 311 312 312 312 330 344 348 349 347 348 348 347 345 344 344 344 342 341 340 339 337 335 335 337 338 339
312 312 307 306 307 308 310 313 311 310 310 312 315 316 313 311 313 313 313 312 312 312 338 346 345 345 345 346 349 346 345 344 343 343 341 341 341 340 338 337 341 342 342 343
315 313 310 307 307 309 309 310 311 311 311 311 313 317 317 314 313 313 313 313 311 312 337 345 345 344 344 345 346 346 345 343 342 342 344 346 345 343 343 344 346 346 346 345
311 311 313 310 309 307 309 309 311 313 312 315 316 319 314 314 314 314 314 312 312 311 332 343 346 343 343 344 345 345 343 342 341 342 345 348 349 348 347 349 348 346 343 341
315 313 312 312 312 310 309 308 311 311 314 315 316 317 316 313 314 314 314 313 310 309 326 342 344 344 344 344 344 343 342 341 340 340 340 347 348 346 345 343 338 340 340 341
315 313 313 310 311 311 310 310 311 311 312 319 315 317 316 313 315 316 315 314 311 309 313 338 341 343 343 343 343 342 340 340 339 339 340 343 346 346 343 337 331 330 329 332
313 316 314 311 310 311 311 310 311 315 316 319 314 317 317 315 314 313 313 312 312 310 310 328 338 340 340 340 341 340 339 338 338 339 339 341 343 342 337 330 330 328 328 329
312 315 316 312 312 312 313 311 309 311 315 312 313 317 316 315 315 314 315 311 312 310 310 316 333 337 339 337 338 337 338 339 338 338 339 340 338 339 335 331 328 329 328 328
313 311 315 314 316 311 314 317 311 312 313 313 312 313 314 313 314 314 314 311 311 312 310 316 330 333 336 336 335 337 340 343 342 340 340 343 340 339 338 335 334 330 333 329
314 317 315 314 315 315 313 313 318 317 315 319 315 314 315 315 314 314 319 312 311 310 310 336 338 340 340 340 340 341 341 337 337 341 339 336 337 335 333 331 332 331 323 319
314 316 312 313 319 318 316 316 314 315 313 316 317 313 313 314 320 314 314 322 309 308 327 339 342 341 342 341 338 333 333 333 332 334 332 334 330 331 332 328 322 320 317 315
313 315 313 312 312 313 315 315 315 315 316 316 314 310 322 327 327 326 328 329 309 326 339 338 338 340 335 331 328 326 325 324 323 323 324 320 320 319 319 316 314 313 312 311
313 316 312 312 316 314 317 316 315 315 318 318 320 318 330 332 333 334 332 322 331 341 340 340 338 333 327 325 323 321 319 316 315 315 315 315 316 315 313 312 311 311 311 310
313 313 315 315 319 316 320 318 315 316 319 318 321 327 333 337 338 336 333 337 342 341 340 335 330 326 324 322 320 317 315 315 314 313 312 311 312 312 311 310 310 310 309 308
313 315 317 315 314 315 315 316 316 317 316 320 321 329 329 332 335 340 339 341 341 337 334 330 326 323 321 318 316 315 314 312 312 311 310 309 310 310 310 309 308 307 306 305
306 315 316 316 315 315 316 314 313 316 315 319 323 326 324 329 333 340 338 336 333 331 328 325 322 321 318 315 314 312 311 310 310 309 307 307 308 307 307 306 306 305 304 304
308 312 313 317 321 316 318 315 315 318 316 321 321 326 325 328 333 331 329 328 327 325 323 322 319 316 315 313 311 310 309 307 306 306 305 304 304 304 304 305 305 304 303 303
309 311 314 318 319 323 320 314 315 319 321 323 325 324 321 322 321 322 322 321 321 319 317 315 314 312 311 309 308 307 306 305 304 304 303 303 304 304 304 304 303 302 302 301
311 311 316 320 324 322 321 320 320 319 324 323 324 320 318 317 317 314 315 314 314 312 312 311 310 309 308 307 306 305 303 303 302 302 302 302 303 302 303 303 302 301 301 299
313 312 316 324 320 323 323 322 320 319 326 322 319 319 320 319 321 317 312 312 312 311 310 310 308 307 305 304 304 303 301 301 299 300 301 302 301 301 301 301 301 300 300 298
313 311 317 320 324 323 318 315 320 320 318 320 318 318 320 319 318 313 311 310 310 309 308 307 306 304 303 302 302 300 299 297 298 299 300 300 299 299 299 300 300 299 299 298
312 312 312 316 320 322 311 319 324 320 316 317 316 313 314 313 313 312 310 309 308 307 305 305 303 302 301 301 300 297 296 297 298 299 298 298 298 297 298 298 297 297 297 296
311 309 308 311 311 305 311 315 313 312 313 313 312 312 312 312 309 309 309 307 307 305 304 303 302 300 299 299 298 296 295 297 297 297 296 295 295 295 295 295 295 295 295 294
308 305 311 312 309 309 310 311 310 310 310 310 310 310 309 308 307 306 306 305 304 303 303 302 301 300 298 297 297 296 296 297 296 295 293 294 293 292 292 292 292 291 291 291
304 303 306 310 308 308 308 309 308 308 306 306 306 306 307 307 306 305 304 304 303 302 302 301 301 299 298 297 296 297 296 296 295 292 292 292 292 292 292 292 292 291 291 291
301 303 307 307 306 308 308 307 307 307 306 304 304 304 303 304 303 303 302 302 301 301 300 300 299 299 298 297 296 296 296 296 294 292 292 292 292 292 292 292 292 292 292 292
Wind_Speed
4 3 7 11 14 15 12 12 9 4 9 4 7 13 11 9 6 8 8 9 7 10 2 8 18 20 26 31 31 33 35 37 36 32 29 27 26 25 25 23 20 21 20 18
3 14 11 12 14 15 14 13 9 6 10 7 8 10 10 10 13 9 9 9 8 5 5 7 13 28 29 33 36 32 33 38 38 33 31 25 26 22 22 20 22 21 18 18
10 10 7 12 10 13 14 12 8 8 7 15 11 11 8 5 8 9 10 7 7 11 9 12 9 15 21 26 33 36 37 40 38 34 28 16 14 16 20 19 13 13 12 14
9 10 17 11 14 12 15 9 9 5 5 5 2 5 6 8 8 9 10 9 9 10 5 9 12 10 18 27 33 34 34 39 39 35 27 20 16 8 3 6 15 17 13 13
7 7 5 12 15 7 11 7 8 6 6 3 5 3 6 5 8 12 14 15 9 10 12 11 12 19 26 23 31 32 32 34 35 31 22 17 10 12 18 23 24 18 18 16
15 11 6 7 9 14 2 5 7 3 3 5 9 7 4 5 13 16 7 9 11 11 9 12 17 19 17 17 19 25 24 27 27 24 19 17 10 10 20 23 30 30 20 16
5 5 4 7 4 10 8 7 2 8 6 4 9 8 12 6 6 6 10 9 10 12 13 12 12 11 12 19 23 22 20 18 19 18 15 14 12 16 27 27 27 23 16 10
3 4 6 6 10 6 13 10 5 6 6 9 5 9 12 22 15 7 1 10 12 12 15 17 18 15 20 21 22 21 21 19 17 17 16 12 11 20 25 23 26 21 16 10
3 5 1 8 6 10 4 8 8 2 3 4 4 11 7 7 7 6 7 10 12 11 14 15 16 18 22 19 19 21 22 22 21 18 14 12 22 25 19 15 15 19 20 21
2 7 2 4 4 6 6 9 5 3 3 5 7 19 10 7 13 11 5 9 10 5 11 13 14 13 19 21 22 23 22 24 22 18 21 27 29 27 25 25 24 26 24 22
4 4 4 3 5 12 6 4 4 5 4 4 5 9 6 11 2 11 10 7 8 9 12 13 16 18 21 25 28 29 30 30 28 27 28 26 28 31 31 32 31 27 23 20
3 3 5 9 3 3 6 7 5 6 5 3 2 5 3 4 5 5 7 7 6 10 15 16 19 22 25 27 29 29 31 32 32 32 33 34 37 37 36 34 31 28 26 21
2 3 4 5 2 4 3 6 5 3 3 3 1 5 3 6 5 5 6 7 11 16 17 19 18 16 21 27 30 31 31 31 32 38 38 35 34 33 32 30 28 26 23 20
18 7 7 6 3 2 5 7 7 6 4 7 6 4 8 6 3 5 6 13 17 19 20 18 17 17 23 27 30 31 30 31 36 37 38 37 34 32 31 29 26 24 20 19
4 5 8 15 13 7 6 9 5 13 7 9 6 2 7 8 4 6 11 15 19 18 18 19 19 18 24 30 29 28 30 32 35 39 37 35 35 33 30 27 24 22 21 20
2 2 2 10 15 14 10 11 8 4 5 10 2 4 4 8 2 11 12 18 18 18 19 20 20 20 21 29 31 30 30 30 38 38 34 31 31 29 27 25 23 22 22 20
2 2 2 3 3 10 6 15 10 5 6 10 9 5 8 11 9 10 14 17 18 18 20 19 19 18 27 30 33 32 32 33 34 36 31 30 29 29 26 25 24 23 21 18
2 2 2 2 4 3 3 15 15 7 7 11 14 11 13 9 15 12 16 18 17 18 18 17 16 26 30 34 35 35 33 33 34 32 29 28 29 28 25 24 24 21 19 19
7 2 2 1 2 4 8 4 6 13 7 6 14 14 19 11 17 14 12 19 18 19 15 19 26 29 33 34 33 37 33 32 31 28 28 28 28 25 23 23 21 18 18 18
5 5 2 2 3 3 6 6 9 4 5 8 13 15 19 9 6 4 7 18 19 20 25 23 29 30 34 30 32 38 31 31 26 28 28 26 24 22 22 20 19 16 16 17
6 4 7 5 3 4 12 19 10 2 4 11 8 9 17 9 6 13 13 16 23 27 26 26 28 29 28 29 37 33 30 26 28 28 28 25 22 21 19 18 16 15 16 17
5 6 4 4 5 5 21 15 2 5 5 12 8 7 17 20 19 15 15 17 20 19 28 27 28 28 28 30 36 29 27 27 27 27 26 23 21 20 19 19 17 17 17 20
4 3 4 3 2 10 13 7 9 14 14 7 11 14 18 17 24 17 13 16 17 25 26 26 30 30 28 29 28 30 26 26 26 28 27 25 23 22 22 23 23 23 22 23
4 6 3 2 4 13 14 11 14 16 16 15 14 15 16 20 21 22 13 12 16 24 26 27 30 28 25 27 31 31 28 27 29 30 27 26 27 27 28 29 30 31 29 29
3 8 7 4 6 6 16 13 13 19 19 20 19 18 17 18 18 25 10 13 21 25 25 27 28 27 27 28 29 28 26 27 30 30 30 29 28 28 29 30 28 29 27 27
6 4 3 3 7 4 9 11 12 17 16 18 20 22 20 19 18 20 10 22 24 25 26 27 28 27 26 29 29 26 25 27 30 29 26 24 25 24 24 24 23 21 21 20
Wind_Direction
202 167 203 205 213 230 238 268 282 303 300 331 248 258 252 247 235 238 234 251 225 240 134 172 176 164 172 174 181 189 191 197 200 202 204 210 215 213 214 219 224 223 220 223
248 243 227 208 215 224 229 229 243 282 288 292 293 290 257 215 216 225 226 230 208 237 149 162 161 164 168 170 190 191 193 199 200 202 205 208 215 215 219 223 223 222 218 218
234 240 235 203 212 212 220 223 223 236 276 288 292 284 232 221 206 214 220 225 181 205 178 178 172 174 174 176 187 191 195 199 201 203 200 200 218 225 223 229 234 246 231 228
257 261 221 219 225 212 236 210 226 239 221 239 157 287 249 183 206 211 208 200 206 204 192 174 179 173 182 191 193 195 196 199 202 202 197 190 186 180 153 163 90 89 99 103
261 286 237 231 231 184 241 188 204 236 211 207 246 303 267 171 200 213 209 206 197 185 178 180 183 190 195 188 193 197 196 201 202 201 199 190 175 102 102 95 76 72 86 92
252 221 253 220 238 208 147 160 183 237 200 233 221 209 267 191 202 217 210 200 181 177 187 191 191 196 193 189 190 196 193 198 199 191 193 195 154 123 96 108 85 59 53 69
293 210 245 202 217 196 202 143 198 212 202 238 184 223 248 259 261 216 181 186 195 163 180 185 187 191 180 188 193 190 185 182 191 190 193 182 133 113 111 101 95 88 90 78
316 322 177 200 207 186 186 178 174 193 170 223 194 223 234 229 249 253 168 192 187 169 179 182 188 188 187 191 189 177 170 163 166 187 182 174 143 124 115 100 104 114 125 151
311 272 203 238 280 176 210 202 209 196 189 114 178 257 298 224 222 224 233 175 199 198 163 176 183 184 183 178 167 166 157 153 157 172 150 154 148 136 117 132 139 139 162 152
269 285 302 218 250 267 169 163 191 242 196 178 181 231 226 188 208 208 214 200 205 176 143 162 169 159 151 151 145 152 142 136 142 138 142 139 140 146 146 148 159 146 143 139
258 231 279 212 191 206 181 193 170 151 181 175 172 229 203 237 163 187 200 216 200 154 146 148 145 139 129 125 128 125 126 126 126 130 131 128 129 133 136 133 131 135 133 131
238 269 265 242 250 91 236 191 190 179 238 244 262 257 252 233 209 233 221 203 147 145 137 133 139 133 116 113 111 111 114 114 117 121 120 116 120 125 128 129 129 134 128 121
33 233 300 315 87 138 239 190 187 105 103 248 197 280 308 106 144 213 218 158 138 132 128 133 126 114 112 110 111 110 112 115 117 116 115 115 119 122 121 122 124 121 113 103
274 199 225 240 136 149 271 207 183 197 138 248 282 319 15 36 119 121 137 139 136 133 130 119 110 107 108 109 111 114 112 114 113 112 111 112 118 119 120 118 114 110 104 95
347 223 216 244 255 216 244 275 186 206 195 175 265 52 352 346 336 133 139 130 120 121 123 117 114 114 114 111 110 114 109 111 114 109 109 109 117 119 117 113 109 105 99 92
298 271 273 271 247 229 222 234 238 209 227 141 331 327 269 303 241 108 102 115 114 125 112 110 114 118 115 116 115 110 107 106 110 106 106 112 113 112 108 109 108 103 96 90
238 229 247 278 131 160 235 217 193 162 194 130 190 201 40 15 106 104 101 106 109 110 110 112 114 114 116 114 115 108 108 107 104 107 110 112 115 111 110 111 110 101 94 94
247 204 241 282 154 183 282 166 170 156 139 115 112 107 74 64 63 72 99 100 100 101 103 107 111 108 107 108 105 106 105 104 105 105 108 112 110 108 108 106 102 99 94 85
229 213 258 244 262 131 47 108 154 149 85 101 122 129 113 93 80 44 70 93 96 95 95 98 103 104 103 102 106 103 98 98 99 101 107 111 111 111 111 106 104 102 95 82
326 232 248 275 73 85 1 28 7 96 115 148 153 146 127 131 115 99 88 100 96 94 95 102 102 100 95 100 106 98 94 95 95 105 108 106 107 107 106 106 102 95 88 83
340 354 11 347 28 98 11 337 313 140 216 159 165 149 135 137 131 119 108 97 100 98 96 99 93 91 97 102 101 93 96 93 107 110 106 103 100 101 102 104 100 94 86 84
339 339 351 331 19 18 338 320 78 110 98 132 132 99 109 119 116 105 102 104 102 104 101 96 93 90 91 98 103 96 93 112 112 108 106 102 101 100 102 101 96 90 88 82
12 18 306 27 354 298 314 46 66 98 108 110 111 119 122 123 106 96 97 103 102 102 101 104 100 92 89 99 104 101 108 114 112 108 104 101 99 97 96 94 90 85 79 73
331 9 335 265 17 359 13 48 77 88 89 92 100 107 111 112 110 98 85 109 99 98 100 102 99 97 94 97 100 105 112 113 112 106 104 104 102 99 94 90 86 81 75 72
329 314 319 329 356 332 25 38 80 88 87 81 77 83 91 101 98 105 117 101 95 97 98 101 101 100 97 100 105 112 116 116 109 108 109 106 103 99 94 86 80 78 74 70
336 327 348 341 342 18 46 54 74 87 91 80 82 80 70 78 85 85 111 94 97 96 99 96 98 102 102 106 108 112 115 113 112 110 110 105 102 99 96 94 87 77 74 67